Year,Month,Day,Hour,Minute,Value (Times are PST for temperature in C)
2018,12,10,00,00,6.10
2018,12,10,00,01,6.10
2018,12,10,00,02,6.10
2018,12,10,00,03,6.10
2018,12,10,00,04,6.10
2018,12,10,00,05,6.10
2018,12,10,00,06,6.10
2018,12,10,00,07,6.10
2018,12,10,00,08,6.10
2018,12,10,00,09,6.10
2018,12,10,00,10,6.10
2018,12,10,00,11,6.10
2018,12,10,00,12,6.10
2018,12,10,00,13,6.10
2018,12,10,00,14,6.10
2018,12,10,00,15,6.10
2018,12,10,00,16,6.10
2018,12,10,00,17,6.10
2018,12,10,00,18,6.10
2018,12,10,00,19,6.10
2018,12,10,00,20,6.10
2018,12,10,00,21,6.10
2018,12,10,00,22,6.10
2018,12,10,00,23,6.10
2018,12,10,00,24,6.10
2018,12,10,00,25,6.20
2018,12,10,00,26,6.10
2018,12,10,00,27,6.20
2018,12,10,00,28,6.20
2018,12,10,00,29,6.20
2018,12,10,00,30,6.20
2018,12,10,00,31,6.20
2018,12,10,00,32,6.20
2018,12,10,00,33,6.20
2018,12,10,00,34,6.20
2018,12,10,00,35,6.20
2018,12,10,00,36,6.20
2018,12,10,00,37,6.20
2018,12,10,00,38,6.20
2018,12,10,00,39,6.20
2018,12,10,00,40,6.20
2018,12,10,00,41,6.20
2018,12,10,00,42,6.20
2018,12,10,00,43,6.20
2018,12,10,00,44,6.20
2018,12,10,00,45,6.30
2018,12,10,00,46,6.30
2018,12,10,00,47,6.30
2018,12,10,00,48,6.30
2018,12,10,00,49,6.30
2018,12,10,00,50,6.30
2018,12,10,00,51,6.30
2018,12,10,00,52,6.30
2018,12,10,00,53,6.30
2018,12,10,00,54,6.30
2018,12,10,00,55,6.30
2018,12,10,00,56,6.30
2018,12,10,00,57,6.30
2018,12,10,00,58,6.30
2018,12,10,00,59,6.30
2018,12,10,01,00,6.40
2018,12,10,01,01,6.40
2018,12,10,01,02,6.40
2018,12,10,01,03,6.40
2018,12,10,01,04,6.40
2018,12,10,01,05,6.40
2018,12,10,01,06,6.40
2018,12,10,01,07,6.40
2018,12,10,01,08,6.40
2018,12,10,01,09,6.50
2018,12,10,01,10,6.40
2018,12,10,01,11,6.40
2018,12,10,01,12,6.50
2018,12,10,01,13,6.50
2018,12,10,01,14,6.50
2018,12,10,01,15,6.60
2018,12,10,01,16,6.60
2018,12,10,01,17,6.60
2018,12,10,01,18,6.60
2018,12,10,01,19,6.60
2018,12,10,01,20,6.60
2018,12,10,01,21,6.60
2018,12,10,01,22,6.60
2018,12,10,01,23,6.60
2018,12,10,01,24,6.70
2018,12,10,01,25,6.70
2018,12,10,01,26,6.70
2018,12,10,01,27,6.70
2018,12,10,01,28,6.70
2018,12,10,01,29,6.70
2018,12,10,01,30,6.70
2018,12,10,01,31,6.70
2018,12,10,01,32,6.70
2018,12,10,01,33,6.70
2018,12,10,01,34,6.70
2018,12,10,01,35,6.70
2018,12,10,01,36,6.70
2018,12,10,01,37,6.70
2018,12,10,01,38,6.70
2018,12,10,01,39,6.60
2018,12,10,01,40,6.60
2018,12,10,01,41,6.60
2018,12,10,01,42,6.60
2018,12,10,01,43,6.60
2018,12,10,01,44,6.60
2018,12,10,01,45,6.60
2018,12,10,01,46,6.60
2018,12,10,01,47,6.60
2018,12,10,01,48,6.50
2018,12,10,01,49,6.50
2018,12,10,01,50,6.50
2018,12,10,01,51,6.50
2018,12,10,01,52,6.50
2018,12,10,01,53,6.50
2018,12,10,01,54,6.50
2018,12,10,01,55,6.50
2018,12,10,01,56,6.50
2018,12,10,01,57,6.50
2018,12,10,01,58,6.50
2018,12,10,01,59,6.50
2018,12,10,02,00,6.40
2018,12,10,02,01,6.40
2018,12,10,02,02,6.40
2018,12,10,02,03,6.40
2018,12,10,02,04,6.40
2018,12,10,02,05,6.40
2018,12,10,02,06,6.30
2018,12,10,02,07,6.30
2018,12,10,02,08,6.30
2018,12,10,02,09,6.30
2018,12,10,02,10,6.30
2018,12,10,02,11,6.30
2018,12,10,02,12,6.30
2018,12,10,02,13,6.30
2018,12,10,02,14,6.30
2018,12,10,02,15,6.30
2018,12,10,02,16,6.30
2018,12,10,02,17,6.30
2018,12,10,02,18,6.30
2018,12,10,02,19,6.30
2018,12,10,02,20,6.30
2018,12,10,02,21,6.30
2018,12,10,02,22,6.30
2018,12,10,02,23,6.30
2018,12,10,02,24,6.20
2018,12,10,02,25,6.20
2018,12,10,02,26,6.20
2018,12,10,02,27,6.20
2018,12,10,02,28,6.20
2018,12,10,02,29,6.20
2018,12,10,02,30,6.20
2018,12,10,02,31,6.20
2018,12,10,02,32,6.20
2018,12,10,02,33,6.20
2018,12,10,02,34,6.20
2018,12,10,02,35,6.20
2018,12,10,02,36,6.20
2018,12,10,02,37,6.20
2018,12,10,02,38,6.20
2018,12,10,02,39,6.20
2018,12,10,02,40,6.20
2018,12,10,02,41,6.20
2018,12,10,02,42,6.20
2018,12,10,02,43,6.10
2018,12,10,02,44,6.10
2018,12,10,02,45,6.10
2018,12,10,02,46,6.10
2018,12,10,02,47,6.10
2018,12,10,02,48,6.10
2018,12,10,02,49,6.10
2018,12,10,02,50,6.10
2018,12,10,02,51,6.10
2018,12,10,02,52,6.10
2018,12,10,02,53,6.20
2018,12,10,02,54,6.20
2018,12,10,02,55,6.20
2018,12,10,02,56,6.30
2018,12,10,02,57,6.30
2018,12,10,02,58,6.30
2018,12,10,02,59,6.30
2018,12,10,03,00,6.30
2018,12,10,03,01,6.30
2018,12,10,03,02,6.30
2018,12,10,03,03,6.20
2018,12,10,03,04,6.20
2018,12,10,03,05,6.20
2018,12,10,03,06,6.20
2018,12,10,03,07,6.20
2018,12,10,03,08,6.20
2018,12,10,03,09,6.20
2018,12,10,03,10,6.20
2018,12,10,03,11,6.20
2018,12,10,03,12,6.20
2018,12,10,03,13,6.20
2018,12,10,03,14,6.20
2018,12,10,03,15,6.20
2018,12,10,03,16,6.20
2018,12,10,03,17,6.20
2018,12,10,03,18,6.20
2018,12,10,03,19,6.20
2018,12,10,03,20,6.20
2018,12,10,03,21,6.20
2018,12,10,03,22,6.20
2018,12,10,03,23,6.10
2018,12,10,03,24,6.10
2018,12,10,03,25,6.10
2018,12,10,03,26,6.10
2018,12,10,03,27,6.10
2018,12,10,03,28,6.10
2018,12,10,03,29,6.10
2018,12,10,03,30,6.00
2018,12,10,03,31,6.00
2018,12,10,03,32,6.00
2018,12,10,03,33,5.90
2018,12,10,03,34,5.90
2018,12,10,03,35,5.90
2018,12,10,03,36,5.90
2018,12,10,03,37,5.90
2018,12,10,03,38,5.80
2018,12,10,03,39,5.80
2018,12,10,03,40,5.80
2018,12,10,03,41,5.80
2018,12,10,03,42,5.80
2018,12,10,03,43,5.70
2018,12,10,03,44,5.70
2018,12,10,03,45,5.70
2018,12,10,03,46,5.60
2018,12,10,03,47,5.60
2018,12,10,03,48,5.60
2018,12,10,03,49,5.50
2018,12,10,03,50,5.50
2018,12,10,03,51,5.50
2018,12,10,03,52,5.50
2018,12,10,03,53,5.40
2018,12,10,03,54,5.40
2018,12,10,03,55,5.40
2018,12,10,03,56,5.40
2018,12,10,03,57,5.30
2018,12,10,03,58,5.30
2018,12,10,03,59,5.30
2018,12,10,04,00,5.20
2018,12,10,04,01,5.20
2018,12,10,04,02,5.20
2018,12,10,04,03,5.20
2018,12,10,04,04,5.10
2018,12,10,04,05,5.10
2018,12,10,04,06,5.10
2018,12,10,04,07,5.10
2018,12,10,04,08,5.10
2018,12,10,04,09,5.00
2018,12,10,04,10,5.00
2018,12,10,04,11,5.00
2018,12,10,04,12,4.90
2018,12,10,04,13,4.90
2018,12,10,04,14,4.90
2018,12,10,04,15,4.80
2018,12,10,04,16,4.80
2018,12,10,04,17,4.80
2018,12,10,04,18,4.80
2018,12,10,04,19,4.70
2018,12,10,04,20,4.70
2018,12,10,04,21,4.70
2018,12,10,04,22,4.70
2018,12,10,04,23,4.70
2018,12,10,04,24,4.60
2018,12,10,04,25,4.60
2018,12,10,04,26,4.60
2018,12,10,04,27,4.60
2018,12,10,04,28,4.50
2018,12,10,04,29,4.50
2018,12,10,04,30,4.40
2018,12,10,04,31,4.40
2018,12,10,04,32,4.40
2018,12,10,04,33,4.40
2018,12,10,04,34,4.30
2018,12,10,04,35,4.30
2018,12,10,04,36,4.30
2018,12,10,04,37,4.30
2018,12,10,04,38,4.30
2018,12,10,04,39,4.20
2018,12,10,04,40,4.20
2018,12,10,04,41,4.20
2018,12,10,04,42,4.20
2018,12,10,04,43,4.20
2018,12,10,04,44,4.20
2018,12,10,04,45,4.10
2018,12,10,04,46,4.10
2018,12,10,04,47,4.10
2018,12,10,04,48,4.10
2018,12,10,04,49,4.00
2018,12,10,04,50,4.00
2018,12,10,04,51,3.90
2018,12,10,04,52,3.90
2018,12,10,04,53,3.90
2018,12,10,04,54,3.90
2018,12,10,04,55,3.80
2018,12,10,04,56,3.80
2018,12,10,04,57,3.80
2018,12,10,04,58,3.80
2018,12,10,04,59,3.80
2018,12,10,05,00,3.80
2018,12,10,05,01,3.80
2018,12,10,05,02,3.80
2018,12,10,05,03,3.80
2018,12,10,05,04,3.70
2018,12,10,05,05,3.70
2018,12,10,05,06,3.70
2018,12,10,05,07,3.70
2018,12,10,05,08,3.70
2018,12,10,05,09,3.70
2018,12,10,05,10,3.70
2018,12,10,05,11,3.70
2018,12,10,05,12,3.60
2018,12,10,05,13,3.60
2018,12,10,05,14,3.60
2018,12,10,05,15,3.60
2018,12,10,05,16,3.60
2018,12,10,05,17,3.60
2018,12,10,05,18,3.60
2018,12,10,05,19,3.50
2018,12,10,05,20,3.50
2018,12,10,05,21,3.50
2018,12,10,05,22,3.50
2018,12,10,05,23,3.40
2018,12,10,05,24,3.40
2018,12,10,05,25,3.40
2018,12,10,05,26,3.40
2018,12,10,05,27,3.40
2018,12,10,05,28,3.30
2018,12,10,05,29,3.30
2018,12,10,05,30,3.30
2018,12,10,05,31,3.30
2018,12,10,05,32,3.30
2018,12,10,05,33,3.20
2018,12,10,05,34,3.20
2018,12,10,05,35,3.20
2018,12,10,05,36,3.20
2018,12,10,05,37,3.20
2018,12,10,05,38,3.20
2018,12,10,05,39,3.20
2018,12,10,05,40,3.10
2018,12,10,05,41,3.10
2018,12,10,05,42,3.10
2018,12,10,05,43,3.10
2018,12,10,05,44,3.00
2018,12,10,05,45,3.00
2018,12,10,05,46,3.00
2018,12,10,05,47,2.90
2018,12,10,05,48,2.90
2018,12,10,05,49,2.90
2018,12,10,05,50,2.90
2018,12,10,05,51,2.80
2018,12,10,05,52,2.80
2018,12,10,05,53,2.80
2018,12,10,05,54,2.80
2018,12,10,05,55,2.80
2018,12,10,05,56,2.80
2018,12,10,05,57,2.80
2018,12,10,05,58,2.80
2018,12,10,05,59,2.80
2018,12,10,06,00,2.70
2018,12,10,06,01,2.70
2018,12,10,06,02,2.70
2018,12,10,06,03,2.70
2018,12,10,06,04,2.70
2018,12,10,06,05,2.70
2018,12,10,06,06,2.70
2018,12,10,06,07,2.70
2018,12,10,06,08,2.70
2018,12,10,06,09,2.60
2018,12,10,06,10,2.60
2018,12,10,06,11,2.60
2018,12,10,06,12,2.60
2018,12,10,06,13,2.60
2018,12,10,06,14,2.60
2018,12,10,06,15,2.60
2018,12,10,06,16,2.60
2018,12,10,06,17,2.60
2018,12,10,06,18,2.60
2018,12,10,06,19,2.60
2018,12,10,06,20,2.60
2018,12,10,06,21,2.60
2018,12,10,06,22,2.60
2018,12,10,06,23,2.60
2018,12,10,06,24,2.60
2018,12,10,06,25,2.60
2018,12,10,06,26,2.60
2018,12,10,06,27,2.60
2018,12,10,06,28,2.60
2018,12,10,06,29,2.60
2018,12,10,06,30,2.60
2018,12,10,06,31,2.60
2018,12,10,06,32,2.70
2018,12,10,06,33,2.70
2018,12,10,06,34,2.70
2018,12,10,06,35,2.70
2018,12,10,06,36,2.70
2018,12,10,06,37,2.70
2018,12,10,06,38,2.70
2018,12,10,06,39,2.70
2018,12,10,06,40,2.60
2018,12,10,06,41,2.60
2018,12,10,06,42,2.60
2018,12,10,06,43,2.60
2018,12,10,06,44,2.60
2018,12,10,06,45,2.60
2018,12,10,06,46,2.60
2018,12,10,06,47,2.70
2018,12,10,06,48,2.70
2018,12,10,06,49,2.70
2018,12,10,06,50,2.70
2018,12,10,06,51,2.70
2018,12,10,06,52,2.70
2018,12,10,06,53,2.70
2018,12,10,06,54,2.70
2018,12,10,06,55,2.70
2018,12,10,06,56,2.70
2018,12,10,06,57,2.70
2018,12,10,06,58,2.70
2018,12,10,06,59,2.70
2018,12,10,07,00,2.70
2018,12,10,07,01,2.70
2018,12,10,07,02,2.80
2018,12,10,07,03,3.20
2018,12,10,07,04,3.60
2018,12,10,07,05,3.80
2018,12,10,07,06,3.90
2018,12,10,07,07,3.90
2018,12,10,07,08,4.00
2018,12,10,07,09,4.00
2018,12,10,07,10,4.00
2018,12,10,07,11,4.00
2018,12,10,07,12,4.00
2018,12,10,07,13,4.10
2018,12,10,07,14,4.10
2018,12,10,07,15,4.10
2018,12,10,07,16,4.10
2018,12,10,07,17,4.20
2018,12,10,07,18,4.20
2018,12,10,07,19,4.20
2018,12,10,07,20,4.20
2018,12,10,07,21,4.20
2018,12,10,07,22,4.30
2018,12,10,07,23,4.30
2018,12,10,07,24,4.40
2018,12,10,07,25,4.40
2018,12,10,07,26,4.50
2018,12,10,07,27,4.50
2018,12,10,07,28,4.50
2018,12,10,07,29,4.60
2018,12,10,07,30,4.60
2018,12,10,07,31,4.60
2018,12,10,07,32,4.70
2018,12,10,07,33,4.70
2018,12,10,07,34,4.70
2018,12,10,07,35,4.70
2018,12,10,07,36,4.70
2018,12,10,07,37,4.60
2018,12,10,07,38,4.60
2018,12,10,07,39,4.60
2018,12,10,07,40,4.60
2018,12,10,07,41,4.60
2018,12,10,07,42,4.60
2018,12,10,07,43,4.50
2018,12,10,07,44,4.50
2018,12,10,07,45,4.50
2018,12,10,07,46,4.50
2018,12,10,07,47,4.50
2018,12,10,07,48,4.50
2018,12,10,07,49,4.40
2018,12,10,07,50,4.40
2018,12,10,07,51,4.40
2018,12,10,07,52,4.40
2018,12,10,07,53,4.40
2018,12,10,07,54,4.40
2018,12,10,07,55,4.40
2018,12,10,07,56,4.30
2018,12,10,07,57,4.30
2018,12,10,07,58,4.30
2018,12,10,07,59,4.30
2018,12,10,08,00,4.30
2018,12,10,08,01,4.30
2018,12,10,08,02,4.20
2018,12,10,08,03,4.20
2018,12,10,08,04,4.30
2018,12,10,08,05,4.20
2018,12,10,08,06,4.20
2018,12,10,08,07,4.20
2018,12,10,08,08,4.20
2018,12,10,08,09,4.20
2018,12,10,08,10,4.20
2018,12,10,08,11,4.20
2018,12,10,08,12,4.20
2018,12,10,08,13,4.20
2018,12,10,08,14,4.10
2018,12,10,08,15,4.10
2018,12,10,08,16,4.10
2018,12,10,08,17,4.00
2018,12,10,08,18,4.00
2018,12,10,08,19,3.90
2018,12,10,08,20,3.90
2018,12,10,08,21,3.90
2018,12,10,08,22,3.80
2018,12,10,08,23,3.80
2018,12,10,08,24,3.80
2018,12,10,08,25,3.80
2018,12,10,08,26,3.70
2018,12,10,08,27,3.70
2018,12,10,08,28,3.70
2018,12,10,08,29,3.60
2018,12,10,08,30,3.60
2018,12,10,08,31,3.60
2018,12,10,08,32,3.50
2018,12,10,08,33,3.50
2018,12,10,08,34,3.50
2018,12,10,08,35,3.50
2018,12,10,08,36,3.40
2018,12,10,08,37,3.40
2018,12,10,08,38,3.40
2018,12,10,08,39,3.40
2018,12,10,08,40,3.40
2018,12,10,08,41,3.40
2018,12,10,08,42,3.40
2018,12,10,08,43,3.40
2018,12,10,08,44,3.40
2018,12,10,08,45,3.40
2018,12,10,08,46,3.50
2018,12,10,08,47,3.50
2018,12,10,08,48,3.50
2018,12,10,08,49,3.50
2018,12,10,08,50,3.60
2018,12,10,08,51,3.60
2018,12,10,08,52,3.60
2018,12,10,08,53,3.60
2018,12,10,08,54,3.60
2018,12,10,08,55,3.60
2018,12,10,08,56,3.70
2018,12,10,08,57,3.70
2018,12,10,08,58,3.70
2018,12,10,08,59,3.70
2018,12,10,09,00,3.70
2018,12,10,09,01,3.80
2018,12,10,09,02,3.80
2018,12,10,09,03,3.80
2018,12,10,09,04,3.80
2018,12,10,09,05,3.90
2018,12,10,09,06,3.90
2018,12,10,09,07,4.00
2018,12,10,09,08,4.00
2018,12,10,09,09,4.10
2018,12,10,09,10,4.10
2018,12,10,09,11,4.20
2018,12,10,09,12,4.20
2018,12,10,09,13,4.20
2018,12,10,09,14,4.30
2018,12,10,09,15,4.30
2018,12,10,09,16,4.30
2018,12,10,09,17,4.40
2018,12,10,09,18,4.40
2018,12,10,09,19,4.40
2018,12,10,09,20,4.40
2018,12,10,09,21,4.40
2018,12,10,09,22,4.40
2018,12,10,09,23,4.50
2018,12,10,09,24,4.50
2018,12,10,09,25,4.50
2018,12,10,09,26,4.60
2018,12,10,09,27,4.60
2018,12,10,09,28,4.60
2018,12,10,09,29,4.60
2018,12,10,09,30,4.70
2018,12,10,09,31,4.70
2018,12,10,09,32,4.70
2018,12,10,09,33,4.70
2018,12,10,09,34,4.70
2018,12,10,09,35,4.80
2018,12,10,09,36,4.80
2018,12,10,09,37,4.80
2018,12,10,09,38,4.80
2018,12,10,09,39,4.80
2018,12,10,09,40,4.80
2018,12,10,09,41,4.80
2018,12,10,09,42,4.80
2018,12,10,09,43,4.80
2018,12,10,09,44,4.80
2018,12,10,09,45,4.80
2018,12,10,09,46,4.90
2018,12,10,09,47,4.90
2018,12,10,09,48,4.90
2018,12,10,09,49,4.90
2018,12,10,09,50,4.90
2018,12,10,09,51,4.90
2018,12,10,09,52,5.00
2018,12,10,09,53,5.00
2018,12,10,09,54,5.00
2018,12,10,09,55,5.00
2018,12,10,09,56,5.10
2018,12,10,09,57,5.10
2018,12,10,09,58,5.10
2018,12,10,09,59,5.10
2018,12,10,10,00,5.10
2018,12,10,10,01,5.20
2018,12,10,10,02,5.20
2018,12,10,10,03,5.20
2018,12,10,10,04,5.20
2018,12,10,10,05,5.30
2018,12,10,10,06,5.30
2018,12,10,10,07,5.30
2018,12,10,10,08,5.30
2018,12,10,10,09,5.40
2018,12,10,10,10,5.40
2018,12,10,10,11,5.40
2018,12,10,10,12,5.50
2018,12,10,10,13,5.50
2018,12,10,10,14,5.50
2018,12,10,10,15,5.50
2018,12,10,10,16,5.50
2018,12,10,10,17,5.50
2018,12,10,10,18,5.50
2018,12,10,10,19,5.60
2018,12,10,10,20,5.60
2018,12,10,10,21,5.60
2018,12,10,10,22,5.60
2018,12,10,10,23,5.60
2018,12,10,10,24,5.70
2018,12,10,10,25,5.70
2018,12,10,10,26,5.70
2018,12,10,10,27,5.80
2018,12,10,10,28,5.80
2018,12,10,10,29,5.80
2018,12,10,10,30,5.90
2018,12,10,10,31,5.90
2018,12,10,10,32,5.90
2018,12,10,10,33,6.00
2018,12,10,10,34,6.00
2018,12,10,10,35,6.10
2018,12,10,10,36,6.10
2018,12,10,10,37,6.20
2018,12,10,10,38,6.20
2018,12,10,10,39,6.30
2018,12,10,10,40,6.40
2018,12,10,10,41,6.40
2018,12,10,10,42,6.50
2018,12,10,10,43,6.60
2018,12,10,10,44,6.70
2018,12,10,10,45,6.70
2018,12,10,10,46,6.70
2018,12,10,10,47,6.80
2018,12,10,10,48,6.80
2018,12,10,10,49,6.80
2018,12,10,10,50,6.80
2018,12,10,10,51,6.80
2018,12,10,10,52,6.80
2018,12,10,10,53,6.80
2018,12,10,10,54,6.80
2018,12,10,10,55,6.80
2018,12,10,10,56,6.80
2018,12,10,10,57,6.80
2018,12,10,10,58,6.80
2018,12,10,10,59,6.80
2018,12,10,11,00,6.80
2018,12,10,11,01,6.80
2018,12,10,11,02,6.80
2018,12,10,11,03,6.80
2018,12,10,11,04,6.80
2018,12,10,11,05,6.70
2018,12,10,11,06,6.70
2018,12,10,11,07,6.70
2018,12,10,11,08,6.70
2018,12,10,11,09,6.70
2018,12,10,11,10,6.70
2018,12,10,11,11,6.70
2018,12,10,11,12,6.70
2018,12,10,11,13,6.70
2018,12,10,11,14,6.70
2018,12,10,11,15,6.80
2018,12,10,11,16,6.80
2018,12,10,11,17,6.80
2018,12,10,11,18,6.90
2018,12,10,11,19,6.90
2018,12,10,11,20,6.90
2018,12,10,11,21,6.90
2018,12,10,11,22,6.90
2018,12,10,11,23,6.90
2018,12,10,11,24,7.00
2018,12,10,11,25,7.00
2018,12,10,11,26,7.00
2018,12,10,11,27,7.00
2018,12,10,11,28,7.00
2018,12,10,11,29,7.00
2018,12,10,11,30,7.00
2018,12,10,11,31,7.00
2018,12,10,11,32,7.00
2018,12,10,11,33,6.90
2018,12,10,11,34,6.90
2018,12,10,11,35,6.90
2018,12,10,11,36,6.90
2018,12,10,11,37,6.80
2018,12,10,11,38,6.80
2018,12,10,11,39,6.80
2018,12,10,11,40,6.70
2018,12,10,11,41,6.80
2018,12,10,11,42,6.80
2018,12,10,11,43,6.80
2018,12,10,11,44,6.90
2018,12,10,11,45,6.90
2018,12,10,11,46,6.90
2018,12,10,11,47,7.00
2018,12,10,11,48,7.00
2018,12,10,11,49,7.10
2018,12,10,11,50,7.10
2018,12,10,11,51,7.10
2018,12,10,11,52,7.20
2018,12,10,11,53,7.20
2018,12,10,11,54,7.20
2018,12,10,11,55,7.20
2018,12,10,11,56,7.20
2018,12,10,11,57,7.20
2018,12,10,11,58,7.20
2018,12,10,11,59,7.20
2018,12,10,12,00,7.20
2018,12,10,12,01,7.20
2018,12,10,12,02,7.20
2018,12,10,12,03,7.20
2018,12,10,12,04,7.10
2018,12,10,12,05,7.10
2018,12,10,12,06,7.10
2018,12,10,12,07,7.10
2018,12,10,12,08,7.10
2018,12,10,12,09,7.10
2018,12,10,12,10,7.10
2018,12,10,12,11,7.10
2018,12,10,12,12,7.10
2018,12,10,12,13,7.10
2018,12,10,12,14,7.10
2018,12,10,12,15,7.10
2018,12,10,12,16,7.10
2018,12,10,12,17,7.10
2018,12,10,12,18,7.10
2018,12,10,12,19,7.10
2018,12,10,12,20,7.20
2018,12,10,12,21,7.20
2018,12,10,12,22,7.20
2018,12,10,12,23,7.20
2018,12,10,12,24,7.20
2018,12,10,12,25,7.30
2018,12,10,12,26,7.30
2018,12,10,12,27,7.30
2018,12,10,12,28,7.30
2018,12,10,12,29,7.30
2018,12,10,12,30,7.40
2018,12,10,12,31,7.40
2018,12,10,12,32,7.40
2018,12,10,12,33,7.40
2018,12,10,12,34,7.40
2018,12,10,12,35,7.50
2018,12,10,12,36,7.50
2018,12,10,12,37,7.50
2018,12,10,12,38,7.60
2018,12,10,12,39,7.60
2018,12,10,12,40,7.60
2018,12,10,12,41,7.60
2018,12,10,12,42,7.60
2018,12,10,12,43,7.60
2018,12,10,12,44,7.60
2018,12,10,12,45,7.60
2018,12,10,12,46,7.60
2018,12,10,12,47,7.60
2018,12,10,12,48,7.60
2018,12,10,12,49,7.60
2018,12,10,12,50,7.60
2018,12,10,12,51,7.60
2018,12,10,12,52,7.60
2018,12,10,12,53,7.60
2018,12,10,12,54,7.60
2018,12,10,12,55,7.70
2018,12,10,12,56,7.70
2018,12,10,12,57,7.70
2018,12,10,12,58,7.70
2018,12,10,12,59,7.70
2018,12,10,13,00,7.70
2018,12,10,13,01,7.60
2018,12,10,13,02,7.60
2018,12,10,13,03,7.60
2018,12,10,13,04,7.60
2018,12,10,13,05,7.60
2018,12,10,13,06,7.60
2018,12,10,13,07,7.60
2018,12,10,13,08,7.60
2018,12,10,13,09,7.60
2018,12,10,13,10,7.60
2018,12,10,13,11,7.60
2018,12,10,13,12,7.70
2018,12,10,13,13,7.70
2018,12,10,13,14,7.70
2018,12,10,13,15,7.70
2018,12,10,13,16,7.70
2018,12,10,13,17,7.70
2018,12,10,13,18,7.70
2018,12,10,13,19,7.80
2018,12,10,13,20,7.80
2018,12,10,13,21,7.80
2018,12,10,13,22,7.90
2018,12,10,13,23,7.90
2018,12,10,13,24,7.90
2018,12,10,13,25,7.90
2018,12,10,13,26,8.00
2018,12,10,13,27,8.00
2018,12,10,13,28,8.10
2018,12,10,13,29,8.10
2018,12,10,13,30,8.10
2018,12,10,13,31,8.20
2018,12,10,13,32,8.20
2018,12,10,13,33,8.20
2018,12,10,13,34,8.20
2018,12,10,13,35,8.30
2018,12,10,13,36,8.30
2018,12,10,13,37,8.20
2018,12,10,13,38,8.20
2018,12,10,13,39,8.20
2018,12,10,13,40,8.20
2018,12,10,13,41,8.20
2018,12,10,13,42,8.10
2018,12,10,13,43,8.10
2018,12,10,13,44,8.00
2018,12,10,13,45,8.00
2018,12,10,13,46,7.90
2018,12,10,13,47,7.90
2018,12,10,13,48,7.90
2018,12,10,13,49,7.90
2018,12,10,13,50,7.90
2018,12,10,13,51,7.90
2018,12,10,13,52,7.90
2018,12,10,13,53,7.90
2018,12,10,13,54,7.80
2018,12,10,13,55,7.80
2018,12,10,13,56,7.80
2018,12,10,13,57,7.80
2018,12,10,13,58,7.90
2018,12,10,13,59,7.90
2018,12,10,14,00,7.80
2018,12,10,14,01,7.80
2018,12,10,14,02,7.80
2018,12,10,14,03,7.80
2018,12,10,14,04,7.80
2018,12,10,14,05,7.70
2018,12,10,14,06,7.70
2018,12,10,14,07,7.70
2018,12,10,14,08,7.70
2018,12,10,14,09,7.70
2018,12,10,14,10,7.70
2018,12,10,14,11,7.60
2018,12,10,14,12,7.60
2018,12,10,14,13,7.60
2018,12,10,14,14,7.60
2018,12,10,14,15,7.60
2018,12,10,14,16,7.60
2018,12,10,14,17,7.60
2018,12,10,14,18,7.60
2018,12,10,14,19,7.60
2018,12,10,14,20,7.60
2018,12,10,14,21,7.60
2018,12,10,14,22,7.60
2018,12,10,14,23,7.60
2018,12,10,14,24,7.60
2018,12,10,14,25,7.60
2018,12,10,14,26,7.60
2018,12,10,14,27,7.60
2018,12,10,14,28,7.60
2018,12,10,14,29,7.60
2018,12,10,14,30,7.60
2018,12,10,14,31,7.60
2018,12,10,14,32,7.50
2018,12,10,14,33,7.60
2018,12,10,14,34,7.60
2018,12,10,14,35,7.60
2018,12,10,14,36,7.60
2018,12,10,14,37,7.60
2018,12,10,14,38,7.60
2018,12,10,14,39,7.60
2018,12,10,14,40,7.60
2018,12,10,14,41,7.60
2018,12,10,14,42,7.50
2018,12,10,14,43,7.50
2018,12,10,14,44,7.50
2018,12,10,14,45,7.50
2018,12,10,14,46,7.50
2018,12,10,14,47,7.50
2018,12,10,14,48,7.50
2018,12,10,14,49,7.50
2018,12,10,14,50,7.50
2018,12,10,14,51,7.50
2018,12,10,14,52,7.50
2018,12,10,14,53,7.50
2018,12,10,14,54,7.50
2018,12,10,14,55,7.60
2018,12,10,14,56,7.60
2018,12,10,14,57,7.60
2018,12,10,14,58,7.60
2018,12,10,14,59,7.60
2018,12,10,15,00,7.60
2018,12,10,15,01,7.60
2018,12,10,15,02,7.60
2018,12,10,15,03,7.60
2018,12,10,15,04,7.60
2018,12,10,15,05,7.60
2018,12,10,15,06,7.60
2018,12,10,15,07,7.70
2018,12,10,15,08,7.60
2018,12,10,15,09,7.60
2018,12,10,15,10,7.60
2018,12,10,15,11,7.60
2018,12,10,15,12,7.60
2018,12,10,15,13,7.60
2018,12,10,15,14,7.60
2018,12,10,15,15,7.50
2018,12,10,15,16,7.50
2018,12,10,15,17,7.50
2018,12,10,15,18,7.50
2018,12,10,15,19,7.50
2018,12,10,15,20,7.40
2018,12,10,15,21,7.40
2018,12,10,15,22,7.40
2018,12,10,15,23,7.40
2018,12,10,15,24,7.40
2018,12,10,15,25,7.40
2018,12,10,15,26,7.40
2018,12,10,15,27,7.40
2018,12,10,15,28,7.40
2018,12,10,15,29,7.40
2018,12,10,15,30,7.40
2018,12,10,15,31,7.40
2018,12,10,15,32,7.40
2018,12,10,15,33,7.40
2018,12,10,15,34,7.40
2018,12,10,15,35,7.30
2018,12,10,15,36,7.30
2018,12,10,15,37,7.30
2018,12,10,15,38,7.30
2018,12,10,15,39,7.30
2018,12,10,15,40,7.30
2018,12,10,15,41,7.30
2018,12,10,15,42,7.30
2018,12,10,15,43,7.30
2018,12,10,15,44,7.20
2018,12,10,15,45,7.20
2018,12,10,15,46,7.20
2018,12,10,15,47,7.20
2018,12,10,15,48,7.20
2018,12,10,15,49,7.20
2018,12,10,15,50,7.20
2018,12,10,15,51,7.20
2018,12,10,15,52,7.20
2018,12,10,15,53,7.10
2018,12,10,15,54,7.10
2018,12,10,15,55,7.10
2018,12,10,15,56,7.10
2018,12,10,15,57,7.10
2018,12,10,15,58,7.10
2018,12,10,15,59,7.10
2018,12,10,16,00,7.00
2018,12,10,16,01,7.00
2018,12,10,16,02,7.00
2018,12,10,16,03,7.00
2018,12,10,16,04,6.90
2018,12,10,16,05,6.90
2018,12,10,16,06,6.90
2018,12,10,16,07,6.90
2018,12,10,16,08,6.90
2018,12,10,16,09,6.90
2018,12,10,16,10,6.80
2018,12,10,16,11,6.80
2018,12,10,16,12,6.80
2018,12,10,16,13,6.80
2018,12,10,16,14,6.80
2018,12,10,16,15,6.80
2018,12,10,16,16,6.80
2018,12,10,16,17,6.80
2018,12,10,16,18,6.80
2018,12,10,16,19,6.80
2018,12,10,16,20,6.80
2018,12,10,16,21,6.70
2018,12,10,16,22,6.70
2018,12,10,16,23,6.70
2018,12,10,16,24,6.70
2018,12,10,16,25,6.70
2018,12,10,16,26,6.70
2018,12,10,16,27,6.70
2018,12,10,16,28,6.60
2018,12,10,16,29,6.60
2018,12,10,16,30,6.60
2018,12,10,16,31,6.60
2018,12,10,16,32,6.60
2018,12,10,16,33,6.60
2018,12,10,16,34,6.60
2018,12,10,16,35,6.60
2018,12,10,16,36,6.60
2018,12,10,16,37,6.60
2018,12,10,16,38,6.60
2018,12,10,16,39,6.60
2018,12,10,16,40,6.60
2018,12,10,16,41,6.60
2018,12,10,16,42,6.60
2018,12,10,16,43,6.60
2018,12,10,16,44,6.60
2018,12,10,16,45,6.60
2018,12,10,16,46,6.60
2018,12,10,16,47,6.60
2018,12,10,16,48,6.60
2018,12,10,16,49,6.60
2018,12,10,16,50,6.60
2018,12,10,16,51,6.60
2018,12,10,16,52,6.50
2018,12,10,16,53,6.50
2018,12,10,16,54,6.50
2018,12,10,16,55,6.50
2018,12,10,16,56,6.50
2018,12,10,16,57,6.50
2018,12,10,16,58,6.50
2018,12,10,16,59,6.50
2018,12,10,17,00,6.50
2018,12,10,17,01,6.50
2018,12,10,17,02,6.50
2018,12,10,17,03,6.50
2018,12,10,17,04,6.50
2018,12,10,17,05,6.50
2018,12,10,17,06,6.50
2018,12,10,17,07,6.50
2018,12,10,17,08,6.50
2018,12,10,17,09,6.50
2018,12,10,17,10,6.50
2018,12,10,17,11,6.50
2018,12,10,17,12,6.50
2018,12,10,17,13,6.50
2018,12,10,17,14,6.40
2018,12,10,17,15,6.40
2018,12,10,17,16,6.40
2018,12,10,17,17,6.40
2018,12,10,17,18,6.40
2018,12,10,17,19,6.40
2018,12,10,17,20,6.40
2018,12,10,17,21,6.40
2018,12,10,17,22,6.40
2018,12,10,17,23,6.40
2018,12,10,17,24,6.40
2018,12,10,17,25,6.40
2018,12,10,17,26,6.40
2018,12,10,17,27,6.40
2018,12,10,17,28,6.30
2018,12,10,17,29,6.30
2018,12,10,17,30,6.30
2018,12,10,17,31,6.30
2018,12,10,17,32,6.30
2018,12,10,17,33,6.30
2018,12,10,17,34,6.30
2018,12,10,17,35,6.30
2018,12,10,17,36,6.30
2018,12,10,17,37,6.30
2018,12,10,17,38,6.30
2018,12,10,17,39,6.30
2018,12,10,17,40,6.20
2018,12,10,17,41,6.20
2018,12,10,17,42,6.20
2018,12,10,17,43,6.20
2018,12,10,17,44,6.20
2018,12,10,17,45,6.20
2018,12,10,17,46,6.10
2018,12,10,17,47,6.10
2018,12,10,17,48,6.10
2018,12,10,17,49,6.10
2018,12,10,17,50,6.10
2018,12,10,17,51,6.00
2018,12,10,17,52,6.00
2018,12,10,17,53,6.00
2018,12,10,17,54,5.90
2018,12,10,17,55,5.90
2018,12,10,17,56,5.90
2018,12,10,17,57,5.90
2018,12,10,17,58,5.80
2018,12,10,17,59,5.80
2018,12,10,18,00,5.80
2018,12,10,18,01,5.80
2018,12,10,18,02,5.70
2018,12,10,18,03,5.70
2018,12,10,18,04,5.70
2018,12,10,18,05,5.70
2018,12,10,18,06,5.70